"Sample Date","Sample Time","Sample Value","Units","Flow Rate","Sample Interval","Number Channels","Micron Size 0","Counts/Channel 0","Micron Size 1","Counts/Channel 1","Micron Size 2","Counts/Channel 2","Micron Size 3","Counts/Channel 3","Micron Size 4","Counts/Channel 4","Micron Size 5","Counts/Channel 5","Micron Size 6","Counts/Channel 6","Micron Size 7","Counts/Channel 7","Micron Size 8","Counts/Channel 8","Micron Size 9","Counts/Channel 9","Micron Size 10","Counts/Channel 10","Micron Size 11","Counts/Channel 11","Micron Size 12","Counts/Channel 12","Micron Size 13","Counts/Channel 13","Micron Size 14","Counts/Channel 14","Micron Size 15","Counts/Channel 15","Micron Size 16","Counts/Channel 16","Micron Size 17","Counts/Channel 17","Micron Size 18","Counts/Channel 18","Micron Size 19","Counts/Channel 19","Micron Size 20","Counts/Channel 20","Micron Size 21","Counts/Channel 21","Micron Size 22","Counts/Channel 22","Micron Size 23","Counts/Channel 23","Micron Size 24","Counts/Channel 24","Micron Size 25","Counts/Channel 25","Micron Size 26","Counts/Channel 26","Micron Size 27","Counts/Channel 27","Micron Size 28","Counts/Channel 28","Micron Size 29","Counts/Channel 29","Micron Size 30","Counts/Channel 30","Micron Size 31","Counts/Channel 31"
"03/05/08","04:00:00",56433.000,"cc",28321.592,6.00,6,0.100,44512.000,0.200,5929.000,0.300,2828.000,0.500,2399.000,1.000,765.000,5.000,0
"03/05/08","04:00:06",54594.000,"cc",28371.885,6.00,6,0.100,43380.000,0.200,5745.000,0.300,2566.000,0.500,2169.000,1.000,734.000,5.000,0
"03/05/08","04:00:12",48648.000,"cc",28313.318,6.00,6,0.100,40925.000,0.200,4050.000,0.300,1698.000,0.500,1473.000,1.000,502.000,5.000,0
"03/05/08","04:00:18",47215.000,"cc",28270.797,6.00,6,0.100,40095.000,0.200,3762.000,0.300,1475.000,0.500,1392.000,1.000,491.000,5.000,0
"03/05/08","04:00:24",49952.000,"cc",28332.467,6.00,6,0.100,41566.000,0.200,4327.000,0.300,1855.000,0.500,1692.000,1.000,512.000,5.000,0
"03/05/08","04:00:30",51988.000,"cc",28324.565,6.00,6,0.100,42356.000,0.200,4945.000,0.300,2223.000,0.500,1841.000,1.000,623.000,5.000,0
"03/05/08","04:00:36",55395.000,"cc",28340.270,6.00,6,0.100,43744.000,0.200,5783.000,0.300,2658.000,0.500,2421.000,1.000,789.000,5.000,0
"03/05/08","04:00:42",55159.000,"cc",28317.426,6.00,6,0.100,43491.000,0.200,5687.000,0.300,2764.000,0.500,2376.000,1.000,841.000,5.000,0
"03/05/08","04:00:48",51246.000,"cc",28299.676,6.00,6,0.100,41902.000,0.200,4789.000,0.300,2081.000,0.500,1849.000,1.000,625.000,5.000,0
"03/05/08","04:00:54",52982.000,"cc",28299.873,6.00,6,0.100,42632.000,0.200,5164.000,0.300,2390.000,0.500,2127.000,1.000,669.000,5.000,0
"03/05/08","04:01:00",54268.000,"cc",28304.354,6.00,6,0.100,42998.000,0.200,5597.000,0.300,2652.000,0.500,2226.000,1.000,795.000,5.000,0
"03/05/08","04:01:06",56997.000,"cc",28305.565,6.00,6,0.100,43930.000,0.200,6190.000,0.300,3160.000,0.500,2682.000,1.000,1035.000,5.000,0
"03/05/08","04:01:12",55001.000,"cc",28300.721,6.00,6,0.100,43426.000,0.200,5589.000,0.300,2713.000,0.500,2438.000,1.000,835.000,5.000,0
"03/05/08","04:01:18",58855.000,"cc",28308.600,6.00,6,0.100,44977.000,0.200,6527.000,0.300,3411.000,0.500,2945.000,1.000,995.000,5.000,0
"03/05/08","04:01:24",62228.000,"cc",28355.971,6.00,6,0.100,46813.000,0.200,7328.000,0.300,3784.000,0.500,3246.000,1.000,1057.000,5.000,0
"03/05/08","04:01:30",57498.000,"cc",28322.563,6.00,6,0.100,44468.000,0.200,6309.000,0.300,3139.000,0.500,2674.000,1.000,908.000,5.000,0
"03/05/08","04:01:36",54030.000,"cc",28248.152,6.00,6,0.100,43377.000,0.200,5394.000,0.300,2435.000,0.500,2132.000,1.000,692.000,5.000,0
"03/05/08","04:01:42",55577.000,"cc",28317.002,6.00,6,0.100,43940.000,0.200,5744.000,0.300,2736.000,0.500,2377.000,1.000,780.000,5.000,0
"03/05/08","04:01:48",52068.000,"cc",28282.471,6.00,6,0.100,42528.000,0.200,4957.000,0.300,2098.000,0.500,1886.000,1.000,599.000,5.000,0
"03/05/08","04:01:54",50554.000,"cc",28338.070,6.00,6,0.100,41798.000,0.200,4529.000,0.300,2000.000,0.500,1676.000,1.000,551.000,5.000,0
"03/05/08","04:02:00",50251.000,"cc",28359.008,6.00,6,0.100,41384.000,0.200,4642.000,0.300,1911.000,0.500,1702.000,1.000,612.000,5.000,0
"03/05/08","04:02:06",53360.000,"cc",28303.453,6.00,6,0.100,42715.000,0.200,5295.000,0.300,2459.000,0.500,2162.000,1.000,729.000,5.000,0
"03/05/08","04:02:12",56418.000,"cc",28225.986,6.00,6,0.100,43888.000,0.200,5939.000,0.300,3011.000,0.500,2628.000,1.000,952.000,5.000,0
"03/05/08","04:02:18",55912.000,"cc",28242.422,6.00,6,0.100,43534.000,0.200,5764.000,0.300,2963.000,0.500,2679.000,1.000,972.000,5.000,0
"03/05/08","04:02:24",54522.000,"cc",28359.111,6.00,6,0.100,42786.000,0.200,5518.000,0.300,2813.000,0.500,2517.000,1.000,888.000,5.000,0
"03/05/08","04:02:30",56605.000,"cc",28373.090,6.00,6,0.100,43739.000,0.200,6113.000,0.300,3024.000,0.500,2789.000,1.000,940.000,5.000,0
"03/05/08","04:02:36",55488.000,"cc",28316.842,6.00,6,0.100,43271.000,0.200,5726.000,0.300,2994.000,0.500,2585.000,1.000,912.000,5.000,0
"03/05/08","04:02:42",49839.000,"cc",28341.254,6.00,6,0.100,41126.000,0.200,4411.000,0.300,1938.000,0.500,1720.000,1.000,644.000,5.000,0
"03/05/08","04:02:48",50894.000,"cc",28335.961,6.00,6,0.100,41634.000,0.200,4652.000,0.300,2094.000,0.500,1856.000,1.000,658.000,5.000,0
"03/05/08","04:02:54",51102.000,"cc",28301.844,6.00,6,0.100,41871.000,0.200,4619.000,0.300,2029.000,0.500,1913.000,1.000,670.000,5.000,0
"03/05/08","04:03:00",53229.000,"cc",28372.586,6.00,6,0.100,42777.000,0.200,5073.000,0.300,2458.000,0.500,2120.000,1.000,801.000,5.000,0
"03/05/08","04:03:06",56866.000,"cc",28276.033,6.00,6,0.100,43851.000,0.200,6059.000,0.300,3273.000,0.500,2732.000,1.000,951.000,5.000,0
"03/05/08","04:03:12",56449.000,"cc",28190.121,6.00,6,0.100,43860.000,0.200,5959.000,0.300,3021.000,0.500,2649.000,1.000,960.000,5.000,0
"03/05/08","04:03:18",61438.000,"cc",28351.139,6.00,6,0.100,45866.000,0.200,7125.000,0.300,3810.000,0.500,3349.000,1.000,1288.000,5.000,0
"03/05/08","04:03:24",51727.000,"cc",28389.586,6.00,6,0.100,42324.000,0.200,4817.000,0.300,2047.000,0.500,1897.000,1.000,642.000,5.000,0
"03/05/08","04:03:30",51676.000,"cc",28295.234,6.00,6,0.100,42581.000,0.200,4623.000,0.300,2009.000,0.500,1812.000,1.000,651.000,5.000,0
"03/05/08","04:03:36",48944.000,"cc",28308.408,6.00,6,0.100,41243.000,0.200,4038.000,0.300,1632.000,0.500,1492.000,1.000,539.000,5.000,0
"03/05/08","04:03:42",55945.000,"cc",28361.621,6.00,6,0.100,44844.000,0.200,5458.000,0.300,2537.000,0.500,2261.000,1.000,845.000,5.000,0
"03/05/08","04:03:48",55726.000,"cc",28301.016,6.00,6,0.100,44146.000,0.200,5764.000,0.300,2615.000,0.500,2304.000,1.000,897.000,5.000,0
"03/05/08","04:03:54",54776.000,"cc",28346.764,6.00,6,0.100,43137.000,0.200,5611.000,0.300,2730.000,0.500,2423.000,1.000,875.000,5.000,0
"03/05/08","04:04:00",52770.000,"cc",28336.746,6.00,6,0.100,43160.000,0.200,5026.000,0.300,2065.000,0.500,1866.000,1.000,653.000,5.000,0
"03/05/08","04:04:06",48289.000,"cc",28294.791,6.00,6,0.100,40948.000,0.200,3915.000,0.300,1509.000,0.500,1427.000,1.000,490.000,5.000,0
"03/05/08","04:04:12",49960.000,"cc",28325.074,6.00,6,0.100,42908.000,0.200,4016.000,0.300,1322.000,0.500,1233.000,1.000,481.000,5.000,0
"03/05/08","04:04:18",51732.000,"cc",28265.775,6.00,6,0.100,44402.000,0.200,4258.000,0.300,1334.000,0.500,1275.000,1.000,463.000,5.000,0
"03/05/08","04:04:24",51032.000,"cc",28264.061,6.00,6,0.100,43585.000,0.200,4155.000,0.300,1450.000,0.500,1333.000,1.000,509.000,5.000,0
"03/05/08","04:04:30",51580.000,"cc",28383.455,6.00,6,0.100,42489.000,0.200,4566.000,0.300,2039.000,0.500,1857.000,1.000,628.000,5.000,1.000
"03/05/08","04:04:36",55552.000,"cc",28321.070,6.00,6,0.100,44761.000,0.200,5340.000,0.300,2489.000,0.500,2199.000,1.000,763.000,5.000,0
"03/05/08","04:04:42",58393.000,"cc",28282.430,6.00,6,0.100,44896.000,0.200,6297.000,0.300,3250.000,0.500,2901.000,1.000,1049.000,5.000,0
"03/05/08","04:04:48",48856.000,"cc",28367.272,6.00,6,0.100,41067.000,0.200,4026.000,0.300,1595.000,0.500,1580.000,1.000,588.000,5.000,0
"03/05/08","04:04:54",56263.000,"cc",28319.125,6.00,6,0.100,44065.000,0.200,5788.000,0.300,2943.000,0.500,2597.000,1.000,869.000,5.000,1.000
"03/05/08","04:05:00",59363.000,"cc",28274.615,6.00,6,0.100,45247.000,0.200,6601.000,0.300,3413.000,0.500,3020.000,1.000,1082.000,5.000,0
"03/05/08","04:05:06",54122.000,"cc",28313.867,6.00,6,0.100,43379.000,0.200,5231.000,0.300,2430.000,0.500,2247.000,1.000,835.000,5.000,0
"03/05/08","04:05:12",53647.000,"cc",28277.176,6.00,6,0.100,44752.000,0.200,4809.000,0.300,1777.000,0.500,1688.000,1.000,621.000,5.000,0
"03/05/08","04:05:18",56814.000,"cc",28317.822,6.00,6,0.100,46113.000,0.200,5361.000,0.300,2354.000,0.500,2206.000,1.000,780.000,5.000,0
"03/05/08","04:05:24",56508.000,"cc",28365.436,6.00,6,0.100,46622.000,0.200,5262.000,0.300,1998.000,0.500,1897.000,1.000,729.000,5.000,0
"03/05/08","04:05:30",51620.000,"cc",28303.838,6.00,6,0.100,43053.000,0.200,4535.000,0.300,1775.000,0.500,1676.000,1.000,581.000,5.000,0
"03/05/08","04:05:36",53223.000,"cc",28370.844,6.00,6,0.100,44220.000,0.200,4731.000,0.300,1913.000,0.500,1769.000,1.000,590.000,5.000,0
"03/05/08","04:05:42",52607.000,"cc",28312.379,6.00,6,0.100,42594.000,0.200,4813.000,0.300,2296.000,0.500,2142.000,1.000,762.000,5.000,0
"03/05/08","04:05:48",53901.000,"cc",28290.772,6.00,6,0.100,42590.000,0.200,5267.000,0.300,2618.000,0.500,2492.000,1.000,934.000,5.000,0
"03/05/08","04:05:54",49749.000,"cc",28349.820,6.00,6,0.100,41418.000,0.200,4283.000,0.300,1767.000,0.500,1666.000,1.000,615.000,5.000,0
"03/05/08","04:06:00",50197.000,"cc",28286.570,6.00,6,0.100,42025.000,0.200,4282.000,0.300,1665.000,0.500,1609.000,1.000,616.000,5.000,0
"03/05/08","04:06:06",50668.000,"cc",28224.033,6.00,6,0.100,42075.000,0.200,4416.000,0.300,1781.000,0.500,1779.000,1.000,617.000,5.000,0
"03/05/08","04:06:12",51891.000,"cc",28330.066,6.00,6,0.100,42187.000,0.200,4810.000,0.300,2191.000,0.500,1945.000,1.000,758.000,5.000,0
"03/05/08","04:06:18",57417.000,"cc",28307.264,6.00,6,0.100,43742.000,0.200,6352.000,0.300,3265.000,0.500,3006.000,1.000,1052.000,5.000,0
"03/05/08","04:06:24",59411.000,"cc",28361.992,6.00,6,0.100,45220.000,0.200,6577.000,0.300,3431.000,0.500,3107.000,1.000,1076.000,5.000,0
"03/05/08","04:06:30",53349.000,"cc",28351.082,6.00,6,0.100,42332.000,0.200,5332.000,0.300,2566.000,0.500,2259.000,1.000,860.000,5.000,0
"03/05/08","04:06:36",58481.000,"cc",28254.813,6.00,6,0.100,45010.000,0.200,6427.000,0.300,3248.000,0.500,2802.000,1.000,994.000,5.000,0
"03/05/08","04:06:42",54566.000,"cc",28327.207,6.00,6,0.100,43155.000,0.200,5577.000,0.300,2689.000,0.500,2340.000,1.000,805.000,5.000,0
"03/05/08","04:06:48",55702.000,"cc",28357.588,6.00,6,0.100,43752.000,0.200,5696.000,0.300,2898.000,0.500,2508.000,1.000,848.000,5.000,0
"03/05/08","04:06:54",52030.000,"cc",28271.658,6.00,6,0.100,42140.000,0.200,4937.000,0.300,2236.000,0.500,1988.000,1.000,729.000,5.000,0
"03/05/08","04:07:00",53329.000,"cc",28331.361,6.00,6,0.100,42856.000,0.200,5175.000,0.300,2316.000,0.500,2212.000,1.000,770.000,5.000,0
"03/05/08","04:07:06",49172.000,"cc",28277.246,6.00,6,0.100,40977.000,0.200,4214.000,0.300,1743.000,0.500,1645.000,1.000,593.000,5.000,0
"03/05/08","04:07:12",48732.000,"cc",28297.518,6.00,6,0.100,40849.000,0.200,4113.000,0.300,1674.000,0.500,1530.000,1.000,566.000,5.000,0
"03/05/08","04:07:18",58289.000,"cc",28298.754,6.00,6,0.100,44658.000,0.200,6245.000,0.300,3298.000,0.500,2966.000,1.000,1122.000,5.000,0
"03/05/08","04:07:24",58265.000,"cc",28342.389,6.00,6,0.100,44732.000,0.200,6277.000,0.300,3211.000,0.500,2934.000,1.000,1111.000,5.000,0
"03/05/08","04:07:30",55147.000,"cc",28334.262,6.00,6,0.100,43434.000,0.200,5512.000,0.300,2707.000,0.500,2572.000,1.000,922.000,5.000,0
"03/05/08","04:07:36",51147.000,"cc",28328.121,6.00,6,0.100,42397.000,0.200,4412.000,0.300,1962.000,0.500,1741.000,1.000,635.000,5.000,0
"03/05/08","04:07:42",49609.000,"cc",28344.938,6.00,6,0.100,41603.000,0.200,4243.000,0.300,1643.000,0.500,1607.000,1.000,513.000,5.000,0
"03/05/08","04:07:48",48144.000,"cc",28291.834,6.00,6,0.100,40513.000,0.200,3899.000,0.300,1610.000,0.500,1543.000,1.000,579.000,5.000,0
"03/05/08","04:07:54",55774.000,"cc",28300.043,6.00,6,0.100,43328.000,0.200,5783.000,0.300,2938.000,0.500,2702.000,1.000,1023.000,5.000,0
"03/05/08","04:08:00",63698.000,"cc",28334.627,6.00,6,0.100,46596.000,0.200,7642.000,0.300,4312.000,0.500,3742.000,1.000,1406.000,5.000,0
"03/05/08","04:08:06",68982.000,"cc",28275.889,6.00,6,0.100,48592.000,0.200,8881.000,0.300,5268.000,0.500,4452.000,1.000,1789.000,5.000,0
"03/05/08","04:08:12",69750.000,"cc",28324.482,6.00,6,0.100,48579.000,0.200,9105.000,0.300,5498.000,0.500,4712.000,1.000,1855.000,5.000,1.000
"03/05/08","04:08:18",69720.000,"cc",28302.398,6.00,6,0.100,48914.000,0.200,8979.000,0.300,5308.000,0.500,4762.000,1.000,1757.000,5.000,0
"03/05/08","04:08:24",61374.000,"cc",28342.291,6.00,6,0.100,45548.000,0.200,7095.000,0.300,3921.000,0.500,3529.000,1.000,1281.000,5.000,0
"03/05/08","04:08:30",60459.000,"cc",28302.340,6.00,6,0.100,45304.000,0.200,7048.000,0.300,3712.000,0.500,3277.000,1.000,1118.000,5.000,0
"03/05/08","04:08:36",57952.000,"cc",28329.102,6.00,6,0.100,44721.000,0.200,6239.000,0.300,3119.000,0.500,2866.000,1.000,1007.000,5.000,0
"03/05/08","04:08:42",52686.000,"cc",28362.176,6.00,6,0.100,42441.000,0.200,5058.000,0.300,2337.000,0.500,2101.000,1.000,749.000,5.000,0
"03/05/08","04:08:48",53472.000,"cc",28320.193,6.00,6,0.100,42850.000,0.200,5252.000,0.300,2476.000,0.500,2148.000,1.000,746.000,5.000,0
"03/05/08","04:08:54",49374.000,"cc",28308.037,6.00,6,0.100,41062.000,0.200,4342.000,0.300,1793.000,0.500,1626.000,1.000,551.000,5.000,0
"03/05/08","04:09:00",48981.000,"cc",28286.549,6.00,6,0.100,40808.000,0.200,4234.000,0.300,1779.000,0.500,1597.000,1.000,563.000,5.000,0
"03/05/08","04:09:06",48153.000,"cc",28262.760,6.00,6,0.100,40533.000,0.200,3966.000,0.300,1540.000,0.500,1575.000,1.000,539.000,5.000,0
"03/05/08","04:09:12",48206.000,"cc",28346.299,6.00,6,0.100,40583.000,0.200,4005.000,0.300,1536.000,0.500,1545.000,1.000,537.000,5.000,0
"03/05/08","04:09:18",49568.000,"cc",28356.227,6.00,6,0.100,41281.000,0.200,4269.000,0.300,1784.000,0.500,1612.000,1.000,622.000,5.000,0
"03/05/08","04:09:24",50922.000,"cc",28326.481,6.00,6,0.100,41973.000,0.200,4588.000,0.300,1938.000,0.500,1782.000,1.000,641.000,5.000,0
"03/05/08","04:09:30",54669.000,"cc",28286.717,6.00,6,0.100,43563.000,0.200,5412.000,0.300,2581.000,0.500,2363.000,1.000,750.000,5.000,0
"03/05/08","04:09:36",55893.000,"cc",28294.918,6.00,6,0.100,44106.000,0.200,5754.000,0.300,2729.000,0.500,2483.000,1.000,821.000,5.000,0
"03/05/08","04:09:42",54843.000,"cc",28366.688,6.00,6,0.100,43646.000,0.200,5431.000,0.300,2621.000,0.500,2333.000,1.000,812.000,5.000,0
"03/05/08","04:09:48",56333.000,"cc",28298.883,6.00,6,0.100,45175.000,0.200,5615.000,0.300,2544.000,0.500,2209.000,1.000,790.000,5.000,0
"03/05/08","04:09:54",53819.000,"cc",28365.693,6.00,6,0.100,44057.000,0.200,4974.000,0.300,2130.000,0.500,1949.000,1.000,709.000,5.000,0
"03/05/08","04:10:00",51721.000,"cc",28331.514,6.00,6,0.100,43159.000,0.200,4434.000,0.300,1807.000,0.500,1660.000,1.000,660.000,5.000,1.000
"03/05/08","04:10:06",49623.000,"cc",28281.549,6.00,6,0.100,41732.000,0.200,4068.000,0.300,1666.000,0.500,1595.000,1.000,562.000,5.000,0
"03/05/08","04:10:12",46807.000,"cc",28358.258,6.00,6,0.100,40412.000,0.200,3552.000,0.300,1232.000,0.500,1188.000,1.000,423.000,5.000,0
"03/05/08","04:10:18",47171.000,"cc",28291.629,6.00,6,0.100,40305.000,0.200,3679.000,0.300,1375.000,0.500,1324.000,1.000,488.000,5.000,0
"03/05/08","04:10:24",47033.000,"cc",28306.043,6.00,6,0.100,40324.000,0.200,3621.000,0.300,1344.000,0.500,1282.000,1.000,462.000,5.000,0
"03/05/08","04:10:30",48540.000,"cc",28306.244,6.00,6,0.100,41207.000,0.200,3939.000,0.300,1478.000,0.500,1403.000,1.000,513.000,5.000,0
"03/05/08","04:10:36",51122.000,"cc",28275.662,6.00,6,0.100,41690.000,0.200,4647.000,0.300,2174.000,0.500,1947.000,1.000,664.000,5.000,0
"03/05/08","04:10:42",53654.000,"cc",28375.260,6.00,6,0.100,42996.000,0.200,5280.000,0.300,2465.000,0.500,2157.000,1.000,756.000,5.000,0
"03/05/08","04:10:48",52945.000,"cc",28234.383,6.00,6,0.100,42617.000,0.200,5129.000,0.300,2409.000,0.500,2076.000,1.000,714.000,5.000,0
"03/05/08","04:10:54",54119.000,"cc",28336.928,6.00,6,0.100,43665.000,0.200,5266.000,0.300,2371.000,0.500,2069.000,1.000,748.000,5.000,0
"03/05/08","04:11:00",57411.000,"cc",28280.367,6.00,6,0.100,44673.000,0.200,6159.000,0.300,3065.000,0.500,2633.000,1.000,881.000,5.000,0
"03/05/08","04:11:06",60136.000,"cc",28319.252,6.00,6,0.100,46031.000,0.200,6725.000,0.300,3477.000,0.500,2912.000,1.000,991.000,5.000,0
"03/05/08","04:11:12",57056.000,"cc",28340.850,6.00,6,0.100,44475.000,0.200,6090.000,0.300,2994.000,0.500,2610.000,1.000,887.000,5.000,0
"03/05/08","04:11:18",57456.000,"cc",28306.648,6.00,6,0.100,44710.000,0.200,6087.000,0.300,3045.000,0.500,2667.000,1.000,947.000,5.000,0
"03/05/08","04:11:24",57337.000,"cc",28287.918,6.00,6,0.100,44710.000,0.200,6062.000,0.300,3058.000,0.500,2639.000,1.000,868.000,5.000,0
"03/05/08","04:11:30",61701.000,"cc",28377.666,6.00,6,0.100,45919.000,0.200,7216.000,0.300,3910.000,0.500,3440.000,1.000,1216.000,5.000,0
"03/05/08","04:11:36",59747.000,"cc",28333.295,6.00,6,0.100,45787.000,0.200,6591.000,0.300,3361.000,0.500,2984.000,1.000,1024.000,5.000,0
"03/05/08","04:11:42",51986.000,"cc",28309.412,6.00,6,0.100,41895.000,0.200,5014.000,0.300,2242.000,0.500,2060.000,1.000,775.000,5.000,0
"03/05/08","04:11:48",48634.000,"cc",28245.203,6.00,6,0.100,40800.000,0.200,4083.000,0.300,1616.000,0.500,1595.000,1.000,540.000,5.000,0
"03/05/08","04:11:54",48457.000,"cc",28379.047,6.00,6,0.100,40583.000,0.200,4039.000,0.300,1729.000,0.500,1560.000,1.000,546.000,5.000,0
"03/05/08","04:12:00",46962.000,"cc",28327.898,6.00,6,0.100,40117.000,0.200,3630.000,0.300,1381.000,0.500,1382.000,1.000,452.000,5.000,0
"03/05/08","04:12:06",48886.000,"cc",28322.197,6.00,6,0.100,40778.000,0.200,4105.000,0.300,1702.000,0.500,1692.000,1.000,608.000,5.000,1.000
"03/05/08","04:12:12",52946.000,"cc",28292.076,6.00,6,0.100,44394.000,0.200,4636.000,0.300,1733.000,0.500,1607.000,1.000,576.000,5.000,0
"03/05/08","04:12:18",57673.000,"cc",28300.092,6.00,6,0.100,49217.000,0.200,5026.000,0.300,1568.000,0.500,1401.000,1.000,461.000,5.000,0
"03/05/08","04:12:24",59201.000,"cc",28291.988,6.00,6,0.100,50191.000,0.200,5247.000,0.300,1583.000,0.500,1559.000,1.000,621.000,5.000,0
"03/05/08","04:12:30",62260.000,"cc",28335.856,6.00,6,0.100,52545.000,0.200,5675.000,0.300,1796.000,0.500,1611.000,1.000,633.000,5.000,0
"03/05/08","04:12:36",61800.000,"cc",28325.498,6.00,6,0.100,48882.000,0.200,6369.000,0.300,2826.000,0.500,2729.000,1.000,994.000,5.000,0
"03/05/08","04:12:42",65844.000,"cc",28344.734,6.00,6,0.100,50856.000,0.200,7152.000,0.300,3429.000,0.500,3187.000,1.000,1220.000,5.000,0
"03/05/08","04:12:48",60293.000,"cc",28287.920,6.00,6,0.100,49675.000,0.200,5597.000,0.300,2249.000,0.500,1988.000,1.000,784.000,5.000,0
"03/05/08","04:12:54",58155.000,"cc",28348.424,6.00,6,0.100,48261.000,0.200,5293.000,0.300,2037.000,0.500,1876.000,1.000,688.000,5.000,0
"03/05/08","04:13:00",56725.000,"cc",28315.121,6.00,6,0.100,46352.000,0.200,5217.000,0.300,2224.000,0.500,2170.000,1.000,762.000,5.000,0
"03/05/08","04:13:06",59059.000,"cc",28314.188,6.00,6,0.100,48139.000,0.200,5634.000,0.300,2319.000,0.500,2186.000,1.000,781.000,5.000,0
"03/05/08","04:13:12",55972.000,"cc",28346.811,6.00,6,0.100,45940.000,0.200,5267.000,0.300,2051.000,0.500,1989.000,1.000,725.000,5.000,0
"03/05/08","04:13:18",55815.000,"cc",28260.570,6.00,6,0.100,45563.000,0.200,5235.000,0.300,2225.000,0.500,2009.000,1.000,783.000,5.000,0
"03/05/08","04:13:24",56304.000,"cc",28343.131,6.00,6,0.100,45944.000,0.200,5209.000,0.300,2275.000,0.500,2099.000,1.000,777.000,5.000,0
"03/05/08","04:13:30",54336.000,"cc",28374.389,6.00,6,0.100,43268.000,0.200,5205.000,0.300,2551.000,0.500,2366.000,1.000,946.000,5.000,0
"03/05/08","04:13:36",55885.000,"cc",28320.359,6.00,6,0.100,44888.000,0.200,5289.000,0.300,2421.000,0.500,2384.000,1.000,903.000,5.000,0
"03/05/08","04:13:42",54486.000,"cc",28341.879,6.00,6,0.100,44109.000,0.200,5041.000,0.300,2350.000,0.500,2136.000,1.000,850.000,5.000,0
"03/05/08","04:13:48",51214.000,"cc",28275.297,6.00,6,0.100,41883.000,0.200,4565.000,0.300,2067.000,0.500,1933.000,1.000,766.000,5.000,0
"03/05/08","04:13:54",55164.000,"cc",28320.508,6.00,6,0.100,43848.000,0.200,5336.000,0.300,2610.000,0.500,2450.000,1.000,920.000,5.000,0
"03/05/08","04:14:00",63224.000,"cc",28314.684,6.00,6,0.100,45431.000,0.200,7664.000,0.300,4493.000,0.500,4085.000,1.000,1551.000,5.000,0
"03/05/08","04:14:06",62732.000,"cc",28289.566,6.00,6,0.100,46385.000,0.200,7059.000,0.300,4053.000,0.500,3791.000,1.000,1444.000,5.000,0
"03/05/08","04:14:12",57063.000,"cc",28289.443,6.00,6,0.100,44192.000,0.200,5987.000,0.300,3080.000,0.500,2717.000,1.000,1087.000,5.000,0
"03/05/08","04:14:18",59473.000,"cc",28285.951,6.00,6,0.100,44678.000,0.200,6512.000,0.300,3653.000,0.500,3353.000,1.000,1277.000,5.000,0
"03/05/08","04:14:24",58766.000,"cc",28314.041,6.00,6,0.100,44396.000,0.200,6358.000,0.300,3514.000,0.500,3235.000,1.000,1263.000,5.000,0
"03/05/08","04:14:30",53026.000,"cc",28363.145,6.00,6,0.100,42449.000,0.200,5027.000,0.300,2397.000,0.500,2237.000,1.000,916.000,5.000,0
"03/05/08","04:14:36",49260.000,"cc",28311.988,6.00,6,0.100,41039.000,0.200,4184.000,0.300,1758.000,0.500,1671.000,1.000,608.000,5.000,0
"03/05/08","04:14:42",46359.000,"cc",28340.805,6.00,6,0.100,39876.000,0.200,3519.000,0.300,1241.000,0.500,1264.000,1.000,459.000,5.000,0
"03/05/08","04:14:48",46450.000,"cc",28327.393,6.00,6,0.100,40071.000,0.200,3503.000,0.300,1202.000,0.500,1235.000,1.000,439.000,5.000,0
"03/05/08","04:14:54",47115.000,"cc",28292.330,6.00,6,0.100,40098.000,0.200,3615.000,0.300,1388.000,0.500,1470.000,1.000,544.000,5.000,0
"03/05/08","04:15:00",51358.000,"cc",28289.471,6.00,6,0.100,41403.000,0.200,4706.000,0.300,2226.000,0.500,2190.000,1.000,833.000,5.000,0
"03/05/08","04:15:06",58650.000,"cc",28370.232,6.00,6,0.100,43949.000,0.200,6359.000,0.300,3621.000,0.500,3485.000,1.000,1236.000,5.000,0
"03/05/08","04:15:12",55584.000,"cc",28311.150,6.00,6,0.100,43063.000,0.200,5768.000,0.300,2987.000,0.500,2754.000,1.000,1012.000,5.000,0
"03/05/08","04:15:18",63965.000,"cc",28281.678,6.00,6,0.100,46471.000,0.200,7605.000,0.300,4429.000,0.500,4016.000,1.000,1444.000,5.000,0
"03/05/08","04:15:24",56196.000,"cc",28298.529,6.00,6,0.100,43679.000,0.200,5768.000,0.300,2992.000,0.500,2767.000,1.000,990.000,5.000,0
"03/05/08","04:15:30",54680.000,"cc",28314.941,6.00,6,0.100,43227.000,0.200,5320.000,0.300,2810.000,0.500,2481.000,1.000,842.000,5.000,0
"03/05/08","04:15:36",53906.000,"cc",28280.486,6.00,6,0.100,42861.000,0.200,5388.000,0.300,2617.000,0.500,2248.000,1.000,792.000,5.000,0
"03/05/08","04:15:42",50430.000,"cc",28391.559,6.00,6,0.100,41475.000,0.200,4449.000,0.300,1987.000,0.500,1862.000,1.000,657.000,5.000,0
"03/05/08","04:15:48",49865.000,"cc",28366.606,6.00,6,0.100,41249.000,0.200,4303.000,0.300,1829.000,0.500,1869.000,1.000,615.000,5.000,0
"03/05/08","04:15:54",50771.000,"cc",28350.816,6.00,6,0.100,41876.000,0.200,4431.000,0.300,1921.000,0.500,1866.000,1.000,677.000,5.000,0
"03/05/08","04:16:00",55580.000,"cc",28266.098,6.00,6,0.100,43183.000,0.200,5818.000,0.300,2876.000,0.500,2716.000,1.000,987.000,5.000,0
"03/05/08","04:16:06",55514.000,"cc",28306.998,6.00,6,0.100,42887.000,0.200,5809.000,0.300,2959.000,0.500,2830.000,1.000,1029.000,5.000,0
"03/05/08","04:16:12",55368.000,"cc",28342.664,6.00,6,0.100,42932.000,0.200,5732.000,0.300,2971.000,0.500,2742.000,1.000,991.000,5.000,0
"03/05/08","04:16:18",49591.000,"cc",28290.361,6.00,6,0.100,41075.000,0.200,4344.000,0.300,1814.000,0.500,1735.000,1.000,623.000,5.000,0